Portada
METAR-TAF:

METAR-TAF

Aeroports :

Thimphu, Índia

latitud: 27-24-32N, longitud: 89-25-14E, altitud: 2235 m

Observació

L'informe es va fer fa 13 minuts, a les 01:00 UTC
Vent 3 kt del Sud/Sud-Est
Temperatura 9°C
Humitat 81%
Pressió 1030 hPa
Visibilitat: 6000 m
Núvols disperses a una alçada de 2000 ft
Cel ennuvolat a una alçada de 6000 ft

METAR: VQPR 140100Z 15003KT 6000 SCT020 BKN060 09/06 Q1030

Hora: 07:13 (01:13 UTC)


TAF: manca

Observacions i pronòstics meteorològics de més de 4000 aeroports (METAR i TAF).

Les estacions disponibles són els punts grocs i vermells al mapa.

Posi el ratolí al punt desitjat per veure el nom de l'estació.

Feu clic per veure les observacions i els pronòstics meteorològics.

Per canviar el mapa: feu clic els botons verds amb una creu de color negre per apropar; al botó verd amb un guió per allunyar la imatge; o en les fletxes verdes per a mapes adjacents.


METAR-TAF: